"Period start","avg(HW err(1)/warn(2) (#))","avg(Visibility (m))","avg(Weather code (#))","avg(Precip intensity (mm/h))","min(HW err(1)/warn(2) (#))","max(HW err(1)/warn(2) (#))","std(HW err(1)/warn(2) (#))","med(HW err(1)/warn(2) (#))","min(Visibility (m))","max(Visibility (m))","std(Visibility (m))","med(Visibility (m))","min(Weather code (#))","max(Weather code (#))","std(Weather code (#))","med(Weather code (#))","min(Precip intensity (mm/h))","max(Precip intensity (mm/h))","std(Precip intensity (mm/h))","med(Precip intensity (mm/h))"
2014-08-28 00:00:00,0,44630,0,0.00,0,0,0,0,34488,50000,5421,46022,0,0,0,0,0.00,0.00,0.00,0.00
2014-08-28 00:10:00,0,43453,0,0.00,0,0,0,0,30004,50000,6300,45393,0,0,0,0,0.00,0.00,0.00,0.00
2014-08-28 00:20:00,0,49750,0,0.00,0,0,0,0,47497,50000,751,50000,0,0,0,0,0.00,0.00,0.00,0.00
2014-08-28 00:30:00,0,48752,0,0.00,0,0,0,0,44347,50000,1764,49593,0,0,0,0,0.00,0.00,0.00,0.00
2014-08-28 00:40:00,0,49938,0,0.00,0,0,0,0,49382,50000,185,50000,0,0,0,0,0.00,0.00,0.00,0.00
2014-08-28 00:50:00,0,35902,0,0.00,0,0,0,0,14157,50000,11493,36934,0,0,0,0,0.00,0.00,0.00,0.00
2014-08-28 01:00:00,0,48984,0,0.00,0,0,0,0,41138,50000,2644,50000,0,0,0,0,0.00,0.00,0.00,0.00
2014-08-28 01:10:00,0,48960,0,0.00,0,0,0,0,45003,50000,1758,50000,0,0,0,0,0.00,0.00,0.00,0.00
2014-08-28 01:20:00,0,49026,0,0.00,0,0,0,0,46320,50000,1285,49894,0,0,0,0,0.00,0.00,0.00,0.00
2014-08-28 01:30:00,0,41103,0,0.00,0,0,0,0,31899,50000,5617,40197,0,0,0,0,0.00,0.00,0.00,0.00
2014-08-28 01:40:00,0,40885,0,0.00,0,0,0,0,27582,50000,9059,42910,0,0,0,0,0.00,0.00,0.00,0.00
2014-08-28 01:50:00,0,39148,0,0.00,0,0,0,0,33077,50000,5353,38081,0,0,0,0,0.00,0.00,0.00,0.00
2014-08-28 02:00:00,0,40675,0,0.00,0,0,0,0,31572,50000,6943,40322,0,0,0,0,0.00,0.00,0.00,0.00
2014-08-28 02:10:00,0,48870,0,0.00,0,0,0,0,43813,50000,2186,50000,0,0,0,0,0.00,0.00,0.00,0.00
2014-08-28 02:20:00,0,44700,0,0.00,0,0,0,0,28641,50000,8447,50000,0,0,0,0,0.00,0.00,0.00,0.00
2014-08-28 02:30:00,0,44292,0,0.00,0,0,0,0,33224,50000,6562,47946,0,0,0,0,0.00,0.00,0.00,0.00
2014-08-28 02:40:00,0,40973,0,0.00,0,0,0,0,19098,50000,9193,41116,0,0,0,0,0.00,0.00,0.00,0.00
2014-08-28 02:50:00,0,45620,0,0.00,0,0,0,0,18397,50000,9353,50000,0,0,0,0,0.00,0.00,0.00,0.00
2014-08-28 03:00:00,0,49000,0,0.00,0,0,0,0,46983,50000,1105,49300,0,0,0,0,0.00,0.00,0.00,0.00
2014-08-28 03:10:00,0,42021,0,0.00,0,0,0,0,32680,50000,4746,42152,0,0,0,0,0.00,0.00,0.00,0.00
2014-08-28 03:20:00,0,49102,0,0.00,0,0,0,0,44252,50000,1883,50000,0,0,0,0,0.00,0.00,0.00,0.00
2014-08-28 03:30:00,0,46698,0,0.00,0,0,0,0,36635,50000,4362,48380,0,0,0,0,0.00,0.00,0.00,0.00
2014-08-28 03:40:00,0,48026,0,0.00,0,0,0,0,42080,50000,2941,50000,0,0,0,0,0.00,0.00,0.00,0.00
2014-08-28 03:50:00,0,48719,0,0.00,0,0,0,0,44924,50000,1848,49882,0,0,0,0,0.00,0.00,0.00,0.00
2014-08-28 04:00:00,0,49735,0,0.00,0,0,0,0,48069,50000,582,50000,0,0,0,0,0.00,0.00,0.00,0.00
2014-08-28 04:10:00,0,47492,0,0.00,0,0,0,0,37306,50000,5017,50000,0,0,0,0,0.00,0.00,0.00,0.00
2014-08-28 04:20:00,0,46713,0,0.00,0,0,0,0,38060,50000,3545,47910,0,0,0,0,0.00,0.00,0.00,0.00
2014-08-28 04:30:00,0,48953,0,0.00,0,0,0,0,45073,50000,1923,50000,0,0,0,0,0.00,0.00,0.00,0.00
2014-08-28 04:40:00,0,47676,0,0.00,0,0,0,0,43143,50000,2486,48428,0,0,0,0,0.00,0.00,0.00,0.00
2014-08-28 04:50:00,0,43205,0,0.00,0,0,0,0,9045,50000,12239,48362,0,0,0,0,0.00,0.00,0.00,0.00
2014-08-28 05:00:00,0,48334,0,0.00,0,0,0,0,39027,50000,3432,50000,0,0,0,0,0.00,0.00,0.00,0.00
2014-08-28 05:10:00,0,48442,0,0.00,0,0,0,0,43850,50000,2177,50000,0,0,0,0,0.00,0.00,0.00,0.00
2014-08-28 05:20:00,0,48494,0,0.00,0,0,0,0,43477,50000,2289,50000,0,0,0,0,0.00,0.00,0.00,0.00
2014-08-28 05:30:00,0,49596,0,0.00,0,0,0,0,47722,50000,787,50000,0,0,0,0,0.00,0.00,0.00,0.00
2014-08-28 05:40:00,0,49537,0,0.00,0,0,0,0,45490,50000,1349,50000,0,0,0,0,0.00,0.00,0.00,0.00
2014-08-28 05:50:00,0,47319,0,0.00,0,0,0,0,39226,50000,3695,49630,0,0,0,0,0.00,0.00,0.00,0.00
2014-08-28 06:00:00,0,48698,0,0.00,0,0,0,0,44704,50000,1884,49724,0,0,0,0,0.00,0.00,0.00,0.00
2014-08-28 06:10:00,0,49847,0,0.00,0,0,0,0,48978,50000,327,50000,0,0,0,0,0.00,0.00,0.00,0.00
2014-08-28 06:20:00,0,49604,0,0.00,0,0,0,0,46072,50000,1177,50000,0,0,0,0,0.00,0.00,0.00,0.00
2014-08-28 06:30:00,0,49416,0,0.00,0,0,0,0,46843,50000,983,50000,0,0,0,0,0.00,0.00,0.00,0.00
2014-08-28 06:40:00,0,50000,0,0.00,0,0,0,0,50000,50000,0,50000,0,0,0,0,0.00,0.00,0.00,0.00
2014-08-28 06:50:00,0,49837,0,0.00,0,0,0,0,48366,50000,490,50000,0,0,0,0,0.00,0.00,0.00,0.00
2014-08-28 07:00:00,0,49504,0,0.00,0,0,0,0,45730,50000,1275,50000,0,0,0,0,0.00,0.00,0.00,0.00
2014-08-28 07:10:00,0,49478,0,0.00,0,0,0,0,44780,50000,1566,50000,0,0,0,0,0.00,0.00,0.00,0.00
2014-08-28 07:20:00,0,49908,0,0.00,0,0,0,0,49460,50000,188,50000,0,0,0,0,0.00,0.00,0.00,0.00
2014-08-28 07:30:00,0,50000,0,0.00,0,0,0,0,50000,50000,0,50000,0,0,0,0,0.00,0.00,0.00,0.00
2014-08-28 07:40:00,0,49305,0,0.00,0,0,0,0,45201,50000,1511,50000,0,0,0,0,0.00,0.00,0.00,0.00
2014-08-28 07:50:00,0,44756,33,0.52,0,0,0,0,30995,50000,6552,48854,0,61,27,52,0.00,1.15,0.52,0.45
2014-08-28 08:00:00,0,38362,33,0.40,0,0,0,0,16393,50000,14097,46748,0,61,27,51,0.00,1.55,0.57,0.05
2014-08-28 08:10:00,0,22324,55,3.25,0,0,0,0,18217,32468,4271,20916,0,61,18,61,0.00,9.45,2.76,2.33
2014-08-28 08:20:00,0,15096,61,5.17,0,0,0,0,11885,18507,1883,14768,61,61,0,61,2.65,9.60,2.37,4.72
2014-08-28 08:30:00,0,28868,56,1.32,0,0,0,0,17868,45459,8518,25959,52,61,4,52,0.30,2.35,0.75,1.50
2014-08-28 08:40:00,0,32364,57,3.12,0,0,0,0,19262,50000,10993,28075,51,61,5,61,0.35,8.00,2.36,2.62
2014-08-28 08:50:00,0,27759,61,2.27,0,0,0,0,22848,42083,5968,25053,61,61,0,61,0.90,3.80,1.00,1.97
2014-08-28 09:00:00,0,35984,55,0.68,0,0,0,0,31783,42047,3310,35247,51,61,4,52,0.20,1.60,0.41,0.57
2014-08-28 09:10:00,0,47527,39,0.07,0,0,0,0,35904,50000,4550,50000,0,61,26,51,0.00,0.35,0.11,0.00
2014-08-28 09:20:00,0,47570,12,0.07,0,0,0,0,39495,50000,3799,50000,0,61,24,0,0.00,0.65,0.20,0.00
2014-08-28 09:30:00,0,41393,52,0.61,0,0,0,0,31890,48697,5406,41578,51,52,0,52,0.10,1.85,0.49,0.57
2014-08-28 09:40:00,0,47624,53,0.04,0,0,0,0,43144,50000,2690,48970,41,61,9,56,0.00,0.10,0.04,0.05
2014-08-28 09:50:00,0,33465,56,1.85,0,0,0,0,12791,48715,12501,36429,51,61,5,56,0.10,8.70,2.59,0.47
2014-08-28 10:00:00,0,24098,61,1.99,0,0,0,0,17103,34019,5173,23364,61,61,0,61,0.60,3.25,0.93,1.98
2014-08-28 10:10:00,0,19542,61,5.26,0,0,0,0,15558,27994,3415,18296,61,61,0,61,1.75,8.10,1.95,5.43
2014-08-28 10:20:00,0,21394,61,2.62,0,0,0,0,13343,30664,6388,19046,61,61,0,61,0.90,5.60,1.56,2.45
2014-08-28 10:30:00,0,35930,61,0.55,0,0,0,0,21314,49206,9776,30514,61,61,0,61,0.05,2.60,0.74,0.30
2014-08-28 10:40:00,0,28177,53,1.52,0,0,0,0,18067,43741,9611,23877,41,61,7,52,0.10,3.75,1.23,1.15
2014-08-28 10:50:00,0,29171,57,1.41,0,0,0,0,23997,37149,3649,28744,52,61,4,61,0.60,2.25,0.47,1.27
2014-08-28 11:00:00,0,18702,61,9.64,0,0,0,0,15817,22495,1923,18495,61,62,0,61,2.15,18.60,3.94,9.28
2014-08-28 11:10:00,0,14080,62,38.73,0,0,0,0,5660,20956,5720,14954,61,63,1,62,9.00,112.15,36.40,20.68
2014-08-28 11:20:00,0,30887,61,4.77,0,0,0,0,15933,49160,9808,30086,61,62,0,61,1.40,16.75,4.50,3.00
2014-08-28 11:30:00,0,42790,61,2.08,0,0,0,0,30074,50000,5918,42932,61,61,0,61,0.95,5.10,1.26,1.52
2014-08-28 11:40:00,0,24177,61,2.77,0,0,0,0,19566,32510,3253,23376,61,61,0,61,1.05,4.00,1.01,2.72
2014-08-28 11:50:00,0,34233,61,3.64,0,0,0,0,26443,46371,5738,33534,61,61,0,61,1.10,9.50,2.23,3.25
2014-08-28 12:00:00,0,31618,61,2.21,0,0,0,0,27794,38513,4046,30178,61,61,0,61,1.35,3.80,0.66,2.10
2014-08-28 12:10:00,0,31258,61,1.74,0,0,0,0,23337,38279,5657,30358,61,61,0,61,0.55,4.15,0.98,1.70
2014-08-28 12:20:00,0,43644,54,1.14,0,0,0,0,22046,50000,9307,48723,51,61,4,52,0.05,3.75,1.28,0.57
2014-08-28 12:30:00,0,41662,56,0.89,0,0,0,0,21191,50000,9164,45674,51,61,5,56,0.05,3.10,0.94,0.62
2014-08-28 12:40:00,0,19134,59,4.69,0,0,0,0,12429,29930,4808,18802,52,62,4,61,1.15,10.60,2.70,4.03
2014-08-28 12:50:00,0,39922,49,0.65,0,0,0,0,21782,50000,10650,44970,0,61,24,61,0.00,3.40,1.21,0.05
2014-08-28 13:00:00,0,39477,36,0.75,0,0,0,0,23865,50000,9106,39532,0,61,29,56,0.00,2.80,0.91,0.35
2014-08-28 13:10:00,0,35327,59,1.39,0,0,0,0,24113,43987,5858,36149,52,61,4,61,0.30,5.30,1.46,0.68
2014-08-28 13:20:00,0,38124,53,1.80,0,0,0,0,20112,50000,12184,44416,51,61,4,51,0.15,5.20,2.04,0.50
2014-08-28 13:30:00,0,14299,62,18.88,0,0,0,0,10177,23506,4413,12521,61,62,0,62,2.60,36.65,10.31,18.15
2014-08-28 13:40:00,0,9428,62,20.77,0,0,0,0,3445,23560,6604,6710,61,63,1,62,2.05,68.10,19.61,14.25
2014-08-28 13:50:00,0,4656,62,25.41,0,0,0,0,3741,5358,570,4780,62,63,0,62,10.15,44.30,9.56,25.20
2014-08-28 14:00:00,0,6367,62,15.12,0,0,0,0,4292,10694,1753,5856,61,63,1,62,3.95,49.60,14.50,8.98
2014-08-28 14:10:00,0,10881,61,4.13,0,0,0,0,7065,15604,2533,10858,61,61,0,61,0.25,9.35,2.79,3.72
2014-08-28 14:20:00,0,10231,61,5.97,0,0,0,0,5514,17262,3589,10360,61,62,0,61,0.25,21.20,7.65,1.12
2014-08-28 14:30:00,0,6392,52,1.53,0,0,0,0,5107,8199,953,6082,52,52,0,52,0.80,3.30,0.69,1.35
2014-08-28 14:40:00,0,5913,55,4.10,0,0,0,0,4749,7332,819,5758,52,61,4,53,1.65,8.20,2.60,2.40
2014-08-28 14:50:00,0,4629,53,6.04,0,0,0,0,3868,5703,639,4443,53,53,0,53,3.20,8.75,1.86,6.05
2014-08-28 15:00:00,0,6443,61,3.90,0,0,0,0,5686,7773,654,6290,61,61,0,61,2.45,9.55,2.07,2.85
2014-08-28 15:10:00,0,7660,59,3.21,0,0,0,0,6601,8902,547,7586,52,61,4,61,2.15,4.90,0.87,3.10
2014-08-28 15:20:00,0,8642,52,3.23,0,0,0,0,6576,9989,1018,8921,52,53,0,52,1.60,5.05,0.98,3.23
2014-08-28 15:30:00,0,10201,52,1.89,0,0,0,0,5283,14884,3433,10205,52,52,0,52,0.45,3.40,0.82,1.77
2014-08-28 15:40:00,0,15832,52,0.86,0,0,0,0,11967,19396,2488,15759,51,52,0,52,0.25,2.05,0.67,0.45
2014-08-28 15:50:00,0,15592,58,5.04,0,0,0,0,9200,22560,4088,14600,52,61,4,61,1.65,8.75,1.81,5.12
2014-08-28 16:00:00,0,28014,34,0.10,0,0,0,0,21327,35834,4832,27480,0,61,28,51,0.00,0.45,0.14,0.03
2014-08-28 16:10:00,0,14201,53,1.48,0,0,0,0,10303,16391,1875,14886,51,61,3,52,0.40,3.50,1.03,1.07
2014-08-28 16:20:00,0,18387,57,1.51,0,0,0,0,12964,24928,3759,18098,52,61,4,61,0.35,3.90,1.07,1.02
2014-08-28 16:30:00,0,18876,57,3.88,0,0,0,0,15551,22952,2460,18472,52,61,4,61,0.60,7.10,2.21,4.20
2014-08-28 16:40:00,0,33594,58,0.53,0,0,0,0,22061,50000,10662,27823,51,61,5,61,0.00,1.05,0.33,0.55
2014-08-28 16:50:00,0,41209,36,0.07,0,0,0,0,31319,50000,7888,40152,0,51,18,41,0.00,0.25,0.10,0.03
2014-08-28 17:00:00,0,49958,0,0.00,0,0,0,0,49583,50000,125,50000,0,0,0,0,0.00,0.00,0.00,0.00
2014-08-28 17:10:00,0,50000,0,0.00,0,0,0,0,50000,50000,0,50000,0,0,0,0,0.00,0.00,0.00,0.00
2014-08-28 17:20:00,0,50000,0,0.00,0,0,0,0,50000,50000,0,50000,0,0,0,0,0.00,0.00,0.00,0.00
2014-08-28 17:30:00,0,50000,0,0.00,0,0,0,0,50000,50000,0,50000,0,0,0,0,0.00,0.00,0.00,0.00
2014-08-28 17:40:00,0,50000,0,0.00,0,0,0,0,50000,50000,0,50000,0,0,0,0,0.00,0.00,0.00,0.00
2014-08-28 17:50:00,0,50000,0,0.00,0,0,0,0,50000,50000,0,50000,0,0,0,0,0.00,0.00,0.00,0.00
2014-08-28 18:00:00,0,50000,0,0.00,0,0,0,0,50000,50000,0,50000,0,0,0,0,0.00,0.00,0.00,0.00
2014-08-28 18:10:00,0,50000,0,0.00,0,0,0,0,50000,50000,0,50000,0,0,0,0,0.00,0.00,0.00,0.00
2014-08-28 18:20:00,0,50000,0,0.00,0,0,0,0,50000,50000,0,50000,0,0,0,0,0.00,0.00,0.00,0.00
2014-08-28 18:30:00,0,50000,0,0.00,0,0,0,0,50000,50000,0,50000,0,0,0,0,0.00,0.00,0.00,0.00
2014-08-28 18:40:00,0,50000,0,0.00,0,0,0,0,50000,50000,0,50000,0,0,0,0,0.00,0.00,0.00,0.00
2014-08-28 18:50:00,0,50000,0,0.00,0,0,0,0,50000,50000,0,50000,0,0,0,0,0.00,0.00,0.00,0.00
2014-08-28 19:00:00,0,50000,0,0.00,0,0,0,0,50000,50000,0,50000,0,0,0,0,0.00,0.00,0.00,0.00
2014-08-28 19:10:00,0,50000,0,0.00,0,0,0,0,50000,50000,0,50000,0,0,0,0,0.00,0.00,0.00,0.00
2014-08-28 19:20:00,0,50000,0,0.00,0,0,0,0,50000,50000,0,50000,0,0,0,0,0.00,0.00,0.00,0.00
2014-08-28 19:30:00,0,50000,0,0.00,0,0,0,0,50000,50000,0,50000,0,0,0,0,0.00,0.00,0.00,0.00
2014-08-28 19:40:00,0,50000,0,0.00,0,0,0,0,50000,50000,0,50000,0,0,0,0,0.00,0.00,0.00,0.00
2014-08-28 19:50:00,0,50000,0,0.00,0,0,0,0,50000,50000,0,50000,0,0,0,0,0.00,0.00,0.00,0.00
2014-08-28 20:00:00,0,50000,0,0.00,0,0,0,0,50000,50000,0,50000,0,0,0,0,0.00,0.00,0.00,0.00
2014-08-28 20:10:00,0,50000,0,0.00,0,0,0,0,50000,50000,0,50000,0,0,0,0,0.00,0.00,0.00,0.00
2014-08-28 20:20:00,0,50000,0,0.00,0,0,0,0,50000,50000,0,50000,0,0,0,0,0.00,0.00,0.00,0.00
2014-08-28 20:30:00,0,50000,0,0.00,0,0,0,0,50000,50000,0,50000,0,0,0,0,0.00,0.00,0.00,0.00
2014-08-28 20:40:00,0,50000,0,0.00,0,0,0,0,50000,50000,0,50000,0,0,0,0,0.00,0.00,0.00,0.00
2014-08-28 20:50:00,0,50000,0,0.00,0,0,0,0,50000,50000,0,50000,0,0,0,0,0.00,0.00,0.00,0.00
2014-08-28 21:00:00,0,50000,0,0.00,0,0,0,0,50000,50000,0,50000,0,0,0,0,0.00,0.00,0.00,0.00
2014-08-28 21:10:00,0,50000,0,0.00,0,0,0,0,50000,50000,0,50000,0,0,0,0,0.00,0.00,0.00,0.00
2014-08-28 21:20:00,0,50000,0,0.00,0,0,0,0,50000,50000,0,50000,0,0,0,0,0.00,0.00,0.00,0.00
2014-08-28 21:30:00,1,50000,0,0.00,0,2,1,2,50000,50000,0,50000,0,0,0,0,0.00,0.00,0.00,0.00
2014-08-28 21:40:00,2,50000,0,0.00,2,2,0,2,50000,50000,0,50000,0,0,0,0,0.00,0.00,0.00,0.00
2014-08-28 21:50:00,2,50000,0,0.00,0,2,1,2,50000,50000,0,50000,0,0,0,0,0.00,0.00,0.00,0.00
2014-08-28 22:00:00,2,50000,0,0.00,0,2,1,2,50000,50000,0,50000,0,0,0,0,0.00,0.00,0.00,0.00
2014-08-28 22:10:00,2,50000,0,0.00,2,2,0,2,50000,50000,0,50000,0,0,0,0,0.00,0.00,0.00,0.00
2014-08-28 22:20:00,2,50000,0,0.00,2,2,0,2,50000,50000,0,50000,0,0,0,0,0.00,0.00,0.00,0.00
2014-08-28 22:30:00,2,50000,0,0.00,2,2,0,2,50000,50000,0,50000,0,0,0,0,0.00,0.00,0.00,0.00
2014-08-28 22:40:00,2,49808,0,0.00,2,2,0,2,48083,50000,575,50000,0,0,0,0,0.00,0.00,0.00,0.00
2014-08-28 22:50:00,2,50000,0,0.00,2,2,0,2,50000,50000,0,50000,0,0,0,0,0.00,0.00,0.00,0.00
2014-08-28 23:00:00,2,50000,0,0.00,2,2,0,2,50000,50000,0,50000,0,0,0,0,0.00,0.00,0.00,0.00
2014-08-28 23:10:00,2,49737,0,0.00,2,2,0,2,47371,50000,789,50000,0,0,0,0,0.00,0.00,0.00,0.00
2014-08-28 23:20:00,2,50000,0,0.00,2,2,0,2,50000,50000,0,50000,0,0,0,0,0.00,0.00,0.00,0.00
2014-08-28 23:30:00,2,49698,0,0.00,2,2,0,2,46979,50000,906,50000,0,0,0,0,0.00,0.00,0.00,0.00
2014-08-28 23:40:00,2,49981,0,0.00,2,2,0,2,49806,50000,58,50000,0,0,0,0,0.00,0.00,0.00,0.00
2014-08-28 23:50:00,2,45927,0,0.00,2,2,0,2,30801,50000,5477,47350,0,0,0,0,0.00,0.00,0.00,0.00
